Time,TemperatureF,DewpointF,PressureIn,WindDirection,WindDirectionDegrees,WindSpeedMPH,WindSpeedGustMPH,Humidity,HourlyPrecipIn,Conditions,Clouds,dailyrainin,SoftwareType,DateUTC
2013-01-07 00:08:00,20.0,16.0,30.20,South,186,1.0,12.0,85,0.00,,,0.00,weatherlink.com 1.10,2013-01-07 06:08:00,
2013-01-07 00:23:00,19.4,16.0,30.19,SSW,202,2.0,7.0,86,0.00,,,0.00,weatherlink.com 1.10,2013-01-07 06:23:00,
2013-01-07 00:38:00,18.7,15.0,30.19,South,181,4.0,7.0,86,0.00,,,0.00,weatherlink.com 1.10,2013-01-07 06:38:00,
2013-01-07 00:53:00,19.2,16.0,30.18,SSE,162,2.0,10.0,87,0.00,,,0.00,weatherlink.com 1.10,2013-01-07 06:53:00,
2013-01-07 01:08:00,19.7,16.0,30.17,South,181,7.0,11.0,86,0.00,,,0.00,weatherlink.com 1.10,2013-01-07 07:08:00,
2013-01-07 01:23:00,19.3,16.0,30.17,SSW,212,2.0,10.0,86,0.00,,,0.00,weatherlink.com 1.10,2013-01-07 07:23:00,
2013-01-07 01:38:00,19.0,16.0,30.17,SW,228,1.0,9.0,87,0.00,,,0.00,weatherlink.com 1.10,2013-01-07 07:38:00,
2013-01-07 01:53:00,19.0,16.0,30.16,SSW,205,1.0,11.0,87,0.00,,,0.00,weatherlink.com 1.10,2013-01-07 07:53:00,
2013-01-07 02:08:00,20.1,17.0,30.16,East,95,4.0,12.0,86,0.00,,,0.00,weatherlink.com 1.10,2013-01-07 08:08:00,
2013-01-07 02:23:00,20.9,17.0,30.15,SE,128,8.0,12.0,85,0.00,,,0.00,weatherlink.com 1.10,2013-01-07 08:23:00,
2013-01-07 02:38:00,21.5,17.0,30.14,SE,135,3.0,10.0,84,0.00,,,0.00,weatherlink.com 1.10,2013-01-07 08:38:00,
2013-01-07 02:53:00,21.7,18.0,30.13,ESE,123,3.0,10.0,84,0.00,,,0.00,weatherlink.com 1.10,2013-01-07 08:53:00,
2013-01-07 03:08:00,21.6,18.0,30.11,SE,124,5.0,14.0,84,0.00,,,0.00,weatherlink.com 1.10,2013-01-07 09:08:00,
2013-01-07 03:23:00,22.6,18.0,30.10,South,191,6.0,14.0,83,0.00,,,0.00,weatherlink.com 1.10,2013-01-07 09:23:00,
2013-01-07 03:38:00,23.1,18.0,30.09,SSE,149,9.0,14.0,81,0.00,,,0.00,weatherlink.com 1.10,2013-01-07 09:38:00,
2013-01-07 03:53:00,22.3,18.0,30.09,SSE,163,6.0,15.0,82,0.00,,,0.00,weatherlink.com 1.10,2013-01-07 09:53:00,
2013-01-07 04:08:00,22.0,18.0,30.08,SE,139,4.0,14.0,83,0.00,,,0.00,weatherlink.com 1.10,2013-01-07 10:08:00,
2013-01-07 04:23:00,21.9,18.0,30.07,South,184,12.0,18.0,83,0.00,,,0.00,weatherlink.com 1.10,2013-01-07 10:23:00,
2013-01-07 04:39:00,22.0,18.0,30.07,SW,216,8.0,16.0,83,0.00,,,0.00,weatherlink.com 1.10,2013-01-07 10:39:00,
2013-01-07 04:54:00,21.3,17.0,30.07,SSW,193,9.0,14.0,84,0.00,,,0.00,weatherlink.com 1.10,2013-01-07 10:54:00,
2013-01-07 05:09:00,21.1,17.0,30.06,SW,235,5.0,12.0,84,0.00,,,0.00,weatherlink.com 1.10,2013-01-07 11:09:00,
2013-01-07 05:24:00,20.5,17.0,30.06,ENE,60,1.0,13.0,85,0.00,,,0.00,weatherlink.com 1.10,2013-01-07 11:24:00,
2013-01-07 05:39:00,20.2,16.0,30.05,SW,223,7.0,14.0,85,0.00,,,0.00,weatherlink.com 1.10,2013-01-07 11:39:00,
2013-01-07 05:54:00,21.3,18.0,30.04,WSW,252,4.0,10.0,85,0.00,,,0.00,weatherlink.com 1.10,2013-01-07 11:54:00,
2013-01-07 06:09:00,22.3,18.0,30.03,SSW,200,9.0,13.0,84,0.00,,,0.00,weatherlink.com 1.10,2013-01-07 12:09:00,
2013-01-07 06:24:00,22.3,18.0,30.03,South,170,4.0,13.0,83,0.00,,,0.00,weatherlink.com 1.10,2013-01-07 12:24:00,
2013-01-07 06:39:00,21.3,17.0,30.05,WSW,238,4.0,12.0,84,0.00,,,0.00,weatherlink.com 1.10,2013-01-07 12:39:00,
2013-01-07 06:54:00,21.9,18.0,30.05,SW,220,6.0,8.0,86,0.00,,,0.00,weatherlink.com 1.10,2013-01-07 12:54:00,
2013-01-07 07:09:00,24.3,20.0,30.05,SSW,193,15.0,15.0,84,0.00,,,0.00,weatherlink.com 1.10,2013-01-07 13:09:00,
2013-01-07 07:24:00,25.2,20.0,30.06,SW,214,5.0,13.0,82,0.00,,,0.00,weatherlink.com 1.10,2013-01-07 13:24:00,
2013-01-07 07:39:00,25.0,20.0,30.06,SSW,204,8.0,14.0,82,0.00,,,0.00,weatherlink.com 1.10,2013-01-07 13:39:00,
2013-01-07 07:54:00,24.6,20.0,30.06,SW,217,3.0,16.0,82,0.00,,,0.00,weatherlink.com 1.10,2013-01-07 13:54:00,
2013-01-07 08:09:00,24.4,20.0,30.05,SW,216,4.0,12.0,82,0.00,,,0.00,weatherlink.com 1.10,2013-01-07 14:09:00,
2013-01-07 08:24:00,25.4,20.0,30.06,South,185,5.0,13.0,81,0.00,,,0.00,weatherlink.com 1.10,2013-01-07 14:24:00,
2013-01-07 08:39:00,25.6,21.0,30.05,SW,217,4.0,11.0,81,0.00,,,0.00,weatherlink.com 1.10,2013-01-07 14:39:00,
2013-01-07 08:54:00,26.1,21.0,30.06,SSW,204,5.0,11.0,80,0.00,,,0.00,weatherlink.com 1.10,2013-01-07 14:54:00,
2013-01-07 09:09:00,26.5,21.0,30.06,SW,232,9.0,14.0,80,0.00,,,0.00,weatherlink.com 1.10,2013-01-07 15:09:00,
2013-01-07 09:24:00,26.7,22.0,30.08,West,262,4.0,12.0,81,0.00,,,0.00,weatherlink.com 1.10,2013-01-07 15:24:00,
2013-01-07 09:39:00,27.1,22.0,30.09,WSW,251,5.0,11.0,80,0.00,,,0.00,weatherlink.com 1.10,2013-01-07 15:39:00,
2013-01-07 09:54:00,27.4,22.0,30.08,SSW,206,7.0,11.0,81,0.00,,,0.00,weatherlink.com 1.10,2013-01-07 15:54:00,
2013-01-07 10:09:00,27.5,22.0,30.07,South,186,7.0,13.0,81,0.00,,,0.00,weatherlink.com 1.10,2013-01-07 16:09:00,
2013-01-07 10:24:00,28.2,23.0,30.07,SSW,213,6.0,13.0,80,0.00,,,0.00,weatherlink.com 1.10,2013-01-07 16:24:00,
2013-01-07 10:39:00,29.0,24.0,30.07,WSW,239,6.0,10.0,80,0.00,,,0.00,weatherlink.com 1.10,2013-01-07 16:39:00,
2013-01-07 10:54:00,29.7,24.0,30.07,SW,231,7.0,10.0,80,0.00,,,0.00,weatherlink.com 1.10,2013-01-07 16:54:00,
2013-01-07 11:09:00,30.2,25.0,30.07,SW,230,3.0,10.0,81,0.00,,,0.00,weatherlink.com 1.10,2013-01-07 17:09:00,
2013-01-07 11:24:00,31.9,26.0,30.05,SW,224,6.0,10.0,79,0.00,,,0.00,weatherlink.com 1.10,2013-01-07 17:24:00,
2013-01-07 11:39:00,32.8,27.0,30.05,WSW,257,6.0,11.0,78,0.00,,,0.00,weatherlink.com 1.10,2013-01-07 17:39:00,
2013-01-07 11:55:00,33.7,27.0,30.05,WSW,238,10.0,14.0,76,0.00,,,0.00,weatherlink.com 1.10,2013-01-07 17:55:00,
2013-01-07 12:10:00,33.2,27.0,30.05,West,259,4.0,11.0,77,0.00,,,0.00,weatherlink.com 1.10,2013-01-07 18:10:00,
2013-01-07 12:25:00,32.7,27.0,30.04,WSW,242,4.0,12.0,78,0.00,,,0.00,weatherlink.com 1.10,2013-01-07 18:25:00,
2013-01-07 12:40:00,33.2,27.0,30.03,SW,236,6.0,12.0,78,0.00,,,0.00,weatherlink.com 1.10,2013-01-07 18:40:00,
2013-01-07 12:55:00,33.6,27.0,30.03,South,172,4.0,13.0,78,0.00,,,0.00,weatherlink.com 1.10,2013-01-07 18:55:00,
2013-01-07 13:10:00,33.7,28.0,30.02,SSW,195,4.0,11.0,78,0.00,,,0.00,weatherlink.com 1.10,2013-01-07 19:10:00,
2013-01-07 13:25:00,33.7,28.0,30.02,WSW,249,4.0,12.0,78,0.00,,,0.00,weatherlink.com 1.10,2013-01-07 19:25:00,
2013-01-07 13:40:00,33.7,28.0,30.02,SW,214,6.0,10.0,79,0.00,,,0.00,weatherlink.com 1.10,2013-01-07 19:40:00,
2013-01-07 13:55:00,33.4,28.0,30.03,West,262,6.0,11.0,80,0.00,,,0.00,weatherlink.com 1.10,2013-01-07 19:55:00,
2013-01-07 14:10:00,34.0,28.0,30.03,SW,233,3.0,10.0,79,0.00,,,0.00,weatherlink.com 1.10,2013-01-07 20:10:00,
2013-01-07 14:25:00,33.9,28.0,30.03,WSW,250,3.0,11.0,79,0.00,,,0.00,weatherlink.com 1.10,2013-01-07 20:25:00,
2013-01-07 14:41:00,33.3,28.0,30.03,SW,227,4.0,7.0,80,0.00,,,0.00,weatherlink.com 1.10,2013-01-07 20:41:00,
2013-01-07 14:55:00,32.8,28.0,30.03,WSW,239,4.0,6.0,82,0.00,,,0.00,weatherlink.com 1.10,2013-01-07 20:55:00,
2013-01-07 15:10:00,32.7,28.0,30.04,WSW,237,1.0,6.0,83,0.00,,,0.00,weatherlink.com 1.10,2013-01-07 21:10:00,
2013-01-07 15:25:00,32.9,28.0,30.04,SSW,203,2.0,6.0,82,0.00,,,0.00,weatherlink.com 1.10,2013-01-07 21:25:00,
2013-01-07 15:40:00,32.8,28.0,30.04,West,269,2.0,7.0,83,0.00,,,0.00,weatherlink.com 1.10,2013-01-07 21:40:00,
2013-01-07 15:55:00,32.3,28.0,30.04,SSW,197,1.0,6.0,84,0.00,,,0.00,weatherlink.com 1.10,2013-01-07 21:55:00,
2013-01-07 16:10:00,31.4,27.0,30.04,SW,231,2.0,6.0,85,0.00,,,0.00,weatherlink.com 1.10,2013-01-07 22:10:00,
2013-01-07 16:25:00,30.8,27.0,30.04,SSW,203,2.0,4.0,86,0.00,,,0.00,weatherlink.com 1.10,2013-01-07 22:25:00,
2013-01-07 16:40:00,30.3,27.0,30.04,WSW,237,1.0,3.0,86,0.00,,,0.00,weatherlink.com 1.10,2013-01-07 22:40:00,
2013-01-07 16:55:00,29.3,26.0,30.04,SW,219,1.0,4.0,88,0.00,,,0.00,weatherlink.com 1.10,2013-01-07 22:55:00,
2013-01-07 17:10:00,28.6,26.0,30.04,SSW,209,1.0,4.0,89,0.00,,,0.00,weatherlink.com 1.10,2013-01-07 23:10:00,
2013-01-07 17:25:00,27.9,25.0,30.04,SW,234,0.0,3.0,89,0.00,,,0.00,weatherlink.com 1.10,2013-01-07 23:25:00,
2013-01-07 17:40:00,27.1,25.0,30.04,South,184,0.0,3.0,90,0.00,,,0.00,weatherlink.com 1.10,2013-01-07 23:40:00,
2013-01-07 17:55:00,26.5,24.0,30.05,SW,219,1.0,3.0,91,0.00,,,0.00,weatherlink.com 1.10,2013-01-07 23:55:00,
2013-01-07 18:10:00,25.8,24.0,30.05,SW,221,1.0,2.0,91,0.00,,,0.00,weatherlink.com 1.10,2013-01-08 00:10:00,
2013-01-07 18:25:00,25.3,23.0,30.06,SW,219,0.0,2.0,92,0.00,,,0.00,weatherlink.com 1.10,2013-01-08 00:25:00,
2013-01-07 18:40:00,25.0,23.0,30.06,SSW,207,2.0,2.0,93,0.00,,,0.00,weatherlink.com 1.10,2013-01-08 00:40:00,
2013-01-07 18:55:00,24.4,23.0,30.06,SSW,200,0.0,2.0,93,0.00,,,0.00,weatherlink.com 1.10,2013-01-08 00:55:00,
2013-01-07 19:10:00,24.2,23.0,30.06,SSW,193,1.0,3.0,94,0.00,,,0.00,weatherlink.com 1.10,2013-01-08 01:10:00,
2013-01-07 19:25:00,24.2,23.0,30.05,SW,214,4.0,5.0,94,0.00,,,0.00,weatherlink.com 1.10,2013-01-08 01:25:00,
2013-01-07 19:40:00,24.0,23.0,30.05,SSW,210,1.0,3.0,94,0.00,,,0.00,weatherlink.com 1.10,2013-01-08 01:40:00,
2013-01-07 19:55:00,23.2,22.0,30.05,SSW,195,1.0,2.0,94,0.00,,,0.00,weatherlink.com 1.10,2013-01-08 01:55:00,
2013-01-07 20:10:00,22.1,21.0,30.05,SW,214,1.0,2.0,94,0.00,,,0.00,weatherlink.com 1.10,2013-01-08 02:10:00,
2013-01-07 20:25:00,22.0,21.0,30.05,SW,217,0.0,1.0,95,0.00,,,0.00,weatherlink.com 1.10,2013-01-08 02:25:00,
2013-01-07 20:40:00,22.3,21.0,30.05,SW,214,1.0,2.0,95,0.00,,,0.00,weatherlink.com 1.10,2013-01-08 02:40:00,
2013-01-07 20:55:00,21.7,20.0,30.05,SSW,204,1.0,3.0,94,0.00,,,0.00,weatherlink.com 1.10,2013-01-08 02:55:00,
2013-01-07 21:11:00,20.4,19.0,30.05,SW,214,0.0,1.0,94,0.00,,,0.00,weatherlink.com 1.10,2013-01-08 03:11:00,
2013-01-07 21:25:00,20.1,19.0,30.05,SW,214,0.0,0.0,95,0.00,,,0.00,weatherlink.com 1.10,2013-01-08 03:25:00,
2013-01-07 21:40:00,20.2,19.0,30.05,SW,214,0.0,0.0,95,0.00,,,0.00,weatherlink.com 1.10,2013-01-08 03:40:00,
2013-01-07 21:55:00,20.6,19.0,30.05,SW,214,0.0,0.0,95,0.00,,,0.00,weatherlink.com 1.10,2013-01-08 03:55:00,
2013-01-07 22:10:00,19.9,19.0,30.05,SW,214,0.0,0.0,95,0.00,,,0.00,weatherlink.com 1.10,2013-01-08 04:10:00,
2013-01-07 22:25:00,20.1,19.0,30.04,SW,214,0.0,0.0,95,0.00,,,0.00,weatherlink.com 1.10,2013-01-08 04:25:00,
2013-01-07 22:40:00,18.9,18.0,30.04,SW,214,0.0,0.0,94,0.00,,,0.00,weatherlink.com 1.10,2013-01-08 04:40:00,
2013-01-07 22:55:00,18.3,17.0,30.04,South,189,0.0,0.0,95,0.00,,,0.00,weatherlink.com 1.10,2013-01-08 04:55:00,
2013-01-07 23:11:00,17.4,16.0,30.05,South,189,0.0,0.0,94,0.00,,,0.00,weatherlink.com 1.10,2013-01-08 05:11:00,
2013-01-07 23:25:00,17.1,16.0,30.04,South,188,0.0,0.0,94,0.00,,,0.00,weatherlink.com 1.10,2013-01-08 05:25:00,
2013-01-07 23:40:00,16.9,16.0,30.04,South,188,0.0,0.0,94,0.00,,,0.00,weatherlink.com 1.10,2013-01-08 05:40:00,
2013-01-07 23:55:00,16.0,14.0,30.04,South,188,0.0,0.0,93,0.00,,,0.00,weatherlink.com 1.10,2013-01-08 05:55:00,